BEIDOU-2 IGSO-7

Last updated on Thu Jul 03 2025 00:02:48 GMT+0000 (Coordinated Universal Time)

1 43539U 18057A 25183.48559227 -.00000061 00000+0 00000+0 0 9992 2 43539 55.1687 166.0844 0089689 236.6436 163.4945 1.00252498 25625
UTC large
Height (km)
Speed (km/s)
/
Latitude / Longitude
Inclination (degrees)
Orbital Period (minutes)
Azimuth
Elevation
Range (km)
Doppler Factor

Next 0 passes for location: London (51.5072 / 0.1276)

Sorry there are no passes over London.